McAllen, TX

9:50 AM CDT on September 25, 2017 (GMT -0500)
McAllen Miller International

Weather History for KMFE - March, 2014

Change the Weather History Date:

Sunday, March 2, 2014

  Actual Average Record
Temperature  
Mean Temperature 73 °F 68 °F  
Max Temperature 90 °F 78 °F 99 °F (1999)
Min Temperature 55 °F 57 °F 31 °F (1980)
Degree Days  
Heating Degree Days 0 2  
Month to date heating degree days 0 4  
Since 1 July heating degree days 776 537  
Cooling Degree Days 8 5  
Month to date cooling degree days 15 10  
Year to date cooling degree days 143 169  
Growing Degree Days 30 (Base 50)    
Moisture  
Dew Point 69 °F    
Average Humidity 73    
Maximum Humidity 93    
Minimum Humidity 52    
Precipitation  
Precipitation 0.00 in 0.04 in 0.42 in (2003)
Month to date precipitation T 0.08  
Year to date precipitation 0.88 2.24  
Sea Level Pressure  
Sea Level Pressure 29.87 in    
Wind  
Wind Speed 18 mph (SE)    
Max Wind Speed 30 mph    
Max Gust Speed 40 mph    
Visibility 9 miles    
Events      
T = Trace of Precipitation, MM = Missing Value Source: NWS Daily Summary

Daily Weather History Graph

Daily Weather History Graph

Search for Another Location

Airport or City:

Trip Planner

Search our weather history database for the weather conditions in past years. The results will help you decide how hot, cold, wet, or windy it might be!

Date:

Astronomy

Mar. 02, 2014 Rise Set
Actual Time 6:55 AM CST 6:35 PM CST
Civil Twilight 6:32 AM CST 6:58 PM CST
Nautical Twilight 6:05 AM CST 7:25 PM CST
Astronomical Twilight 5:38 AM CST 7:51 PM CST
Moon 7:39 AM CST (3/2) 8:17 PM CST (3/2)
Length of Visible Light 12h 25m
Length of Day
11h 39m
Waxing Crescent, 3% of the Moon is Illuminated
Mar 2
Waxing Crescent
Mar 8
First Quarter
Mar 16
Full
Mar 23
Last Quarter
Mar 30
New

Hourly Weather History & Observations

Time (CST) Temp. Heat Index Dew Point Humidity Pressure Visibility Wind Dir Wind Speed Gust Speed Precip Events Conditions
12:53 AM 73.0 °F - 71.1 °F 93% 29.91 in 10.0 mi SSE 13.8 mph - 0.00 in   Overcast
1:53 AM 73.0 °F - 71.1 °F 93% 29.90 in 10.0 mi SSE 15.0 mph - N/A   Overcast
2:17 AM 73.4 °F - 69.8 °F 88% 29.90 in 10.0 mi SSE 15.0 mph - N/A   Overcast
2:35 AM 73.4 °F - 69.8 °F 88% 29.89 in 10.0 mi SSE 15.0 mph 24.2 mph N/A   Overcast
2:53 AM 73.0 °F - 70.0 °F 90% 29.88 in 9.0 mi SSE 15.0 mph 21.9 mph N/A   Overcast
3:53 AM 73.9 °F - 70.0 °F 87% 29.87 in 9.0 mi SE 18.4 mph - N/A   Overcast
4:10 AM 73.4 °F - 69.8 °F 88% 29.86 in 9.0 mi SE 15.0 mph 26.5 mph N/A   Overcast
4:34 AM 73.4 °F - 69.8 °F 88% 29.86 in 8.0 mi SE 18.4 mph 25.3 mph N/A   Overcast
4:53 AM 73.0 °F - 70.0 °F 90% 29.85 in 8.0 mi SE 17.3 mph 29.9 mph N/A   Mostly Cloudy
5:34 AM 73.4 °F - 69.8 °F 88% 29.85 in 7.0 mi SE 20.7 mph 34.5 mph N/A   Scattered Clouds
5:53 AM 73.0 °F - 70.0 °F 90% 29.86 in 7.0 mi SE 18.4 mph 27.6 mph N/A   Partly Cloudy
6:24 AM 73.4 °F - 69.8 °F 88% 29.87 in 7.0 mi SSE 17.3 mph 28.8 mph N/A   Mostly Cloudy
6:53 AM 73.0 °F - 70.0 °F 90% 29.87 in 7.0 mi SSE 17.3 mph 25.3 mph N/A   Mostly Cloudy
7:53 AM 73.0 °F - 70.0 °F 90% 29.88 in 6.0 mi SSE 18.4 mph 26.5 mph N/A   Overcast
8:53 AM 75.0 °F - 70.0 °F 84% 29.91 in 7.0 mi SSE 18.4 mph 29.9 mph N/A   Overcast
9:28 AM 75.2 °F - 69.8 °F 83% 29.91 in 6.0 mi SSE 21.9 mph 28.8 mph N/A   Haze
9:53 AM 78.1 °F - 70.0 °F 76% 29.90 in 6.0 mi SSE 25.3 mph 34.5 mph N/A   Haze
10:53 AM 82.0 °F 85.9 °F 70.0 °F 67% 29.89 in 8.0 mi SSE 19.6 mph 31.1 mph N/A   Mostly Cloudy
11:15 AM 82.4 °F 86.3 °F 69.8 °F 66% 29.88 in 9.0 mi SSE 24.2 mph 33.4 mph N/A   Scattered Clouds
11:53 AM 86.0 °F 90.7 °F 70.0 °F 59% 29.86 in 10.0 mi South 26.5 mph 36.8 mph N/A   Scattered Clouds
12:53 PM 87.1 °F 92.0 °F 70.0 °F 57% 29.82 in 10.0 mi South 24.2 mph 36.8 mph N/A   Scattered Clouds
1:53 PM 87.1 °F 92.0 °F 70.0 °F 57% 29.78 in 10.0 mi SSE 21.9 mph 32.2 mph N/A   Partly Cloudy
2:53 PM 89.1 °F 94.1 °F 70.0 °F 53% 29.78 in 10.0 mi South 15.0 mph 27.6 mph N/A   Partly Cloudy
3:53 PM 88.0 °F 93.8 °F 71.1 °F 57% 29.78 in 10.0 mi SE 17.3 mph 23.0 mph N/A   Partly Cloudy
4:53 PM 87.1 °F 92.0 °F 70.0 °F 57% 29.76 in 10.0 mi SE 18.4 mph 24.2 mph N/A   Clear
5:53 PM 84.0 °F 89.0 °F 71.1 °F 65% 29.78 in 10.0 mi ESE 17.3 mph - N/A   Clear
6:53 PM 79.0 °F - 70.0 °F 74% 29.81 in 10.0 mi SE 13.8 mph - N/A   Clear
7:53 PM 75.9 °F - 70.0 °F 82% 29.84 in 10.0 mi SE 16.1 mph - N/A   Clear
8:53 PM 73.9 °F - 70.0 °F 87% 29.88 in 10.0 mi SE 11.5 mph - N/A   Scattered Clouds
9:04 PM 75.2 °F - 69.8 °F 83% 29.90 in 10.0 mi SE 12.7 mph - N/A   Mostly Cloudy
9:53 PM 73.9 °F - 70.0 °F 87% 29.91 in 10.0 mi SE 11.5 mph - N/A   Overcast
10:27 PM 73.4 °F - 69.8 °F 88% 29.92 in 10.0 mi SE 11.5 mph - N/A   Mostly Cloudy
10:53 PM 72.0 °F - 69.1 °F 91% 29.94 in 10.0 mi ENE 8.1 mph - N/A   Clear
11:09 PM 73.4 °F - 69.8 °F 88% 29.96 in 10.0 mi NNE 12.7 mph 24.2 mph N/A   Mostly Cloudy
11:53 PM 55.0 °F - 48.0 °F 77% 29.99 in 10.0 mi North 23.0 mph 31.1 mph N/A   Overcast